SDM7 OMDB-ULLI

Flight info

Callsign SDM7
Flight time 4h 49m
Altitude 40000
Route DAVMO DCT GABKO DCT ULDUS DCT BUMAR/K0898F400 DCT MONAB DCT ODATI DCT BOKRU DCT DITOT DCT GUBLI DCT GENPA GENPA1V
Aircraft B748/H-SDE3FGHIM1M2RWXY/LB1

Departure

Time 2026-04-22 13:12
Airport Dubai International Airport (OMDB)

Arrival

Time 2026-04-22 18:01
Airport Pulkovo Airport (ULLI)
Time Latitude Longitude Altitude Speed Heading
2026-04-22 12:42 25.25774 55.34699 22 ft 0 kts 211°
2026-04-22 12:57 25.25775 55.34699 17 ft 1 kts 211°
2026-04-22 12:57 25.25796 55.34713 21 ft 4 kts 207°
2026-04-22 12:58 25.25820 55.34725 17 ft 4 kts 194°
2026-04-22 12:58 25.25842 55.34731 18 ft 4 kts 165°
2026-04-22 12:58 25.25856 55.34728 19 ft 2 kts 122°
2026-04-22 12:58 25.25857 55.34727 19 ft 0 kts 121°
2026-04-22 13:02 25.25852 55.34736 19 ft 4 kts 121°
2026-04-22 13:02 25.25825 55.34787 18 ft 11 kts 120°
2026-04-22 13:02 25.25779 55.34874 17 ft 14 kts 120°
2026-04-22 13:02 25.25752 55.34960 16 ft 8 kts 84°
2026-04-22 13:03 25.25778 55.34999 18 ft 8 kts 44°
2026-04-22 13:03 25.25841 55.35054 20 ft 16 kts 36°
2026-04-22 13:03 25.25944 55.35129 19 ft 17 kts 32°
2026-04-22 13:03 25.26041 55.35195 16 ft 15 kts 32°
2026-04-22 13:04 25.26088 55.35228 19 ft 4 kts 32°
2026-04-22 13:04 25.26103 55.35241 19 ft 2 kts 43°
2026-04-22 13:04 25.26115 55.35276 19 ft 7 kts 78°
2026-04-22 13:04 25.26111 55.35308 19 ft 4 kts 115°
2026-04-22 13:05 25.26076 55.35375 18 ft 17 kts 120°
2026-04-22 13:05 25.26000 55.35516 19 ft 22 kts 120°
2026-04-22 13:05 25.25927 55.35659 20 ft 21 kts 118°
2026-04-22 13:05 25.25854 55.35787 18 ft 20 kts 124°
2026-04-22 13:06 25.25777 55.35917 17 ft 20 kts 122°
2026-04-22 13:06 25.25708 55.36047 17 ft 19 kts 119°
2026-04-22 13:06 25.25641 55.36164 16 ft 18 kts 123°
2026-04-22 13:06 25.25572 55.36284 16 ft 19 kts 121°
2026-04-22 13:07 25.25508 55.36405 18 ft 18 kts 121°
2026-04-22 13:07 25.25437 55.36534 18 ft 23 kts 121°
2026-04-22 13:07 25.25350 55.36700 18 ft 26 kts 120°
2026-04-22 13:07 25.25248 55.36884 16 ft 29 kts 123°
2026-04-22 13:08 25.25144 55.37071 18 ft 28 kts 120°
2026-04-22 13:08 25.25050 55.37247 19 ft 26 kts 121°
2026-04-22 13:08 25.24955 55.37403 19 ft 23 kts 126°
2026-04-22 13:08 25.24869 55.37551 19 ft 23 kts 121°
2026-04-22 13:09 25.24791 55.37699 21 ft 22 kts 119°
2026-04-22 13:09 25.24717 55.37839 21 ft 17 kts 121°
2026-04-22 13:09 25.24684 55.37907 20 ft 5 kts 107°
2026-04-22 13:09 25.24680 55.37923 21 ft 0 kts 98°
2026-04-22 13:10 25.24682 55.37935 21 ft 2 kts 83°
2026-04-22 13:10 25.24688 55.37950 21 ft 2 kts 57°
2026-04-22 13:11 25.24709 55.37972 20 ft 6 kts 38°
2026-04-22 13:11 25.24762 55.38005 20 ft 7 kts 18°
2026-04-22 13:11 25.24807 55.38003 20 ft 7 kts 341°
2026-04-22 13:11 25.24828 55.37983 19 ft 0 kts 303°
2026-04-22 13:12 25.24844 55.37955 18 ft 30 kts 302°
2026-04-22 13:12 25.25152 55.37405 21 ft 135 kts 301°
2026-04-22 13:12 25.25793 55.36280 215 ft 197 kts 304°
2026-04-22 13:12 25.26559 55.34961 943 ft 209 kts 307°
2026-04-22 13:13 25.27338 55.33520 1565 ft 221 kts 302°
2026-04-22 13:13 25.28075 55.32128 2857 ft 201 kts 299°
2026-04-22 13:13 25.28809 55.30809 3696 ft 201 kts 301°
2026-04-22 13:13 25.29820 55.29762 4006 ft 204 kts 332°
2026-04-22 13:14 25.31248 55.29454 3987 ft 212 kts 358°
2026-04-22 13:14 25.32761 55.29520 4208 ft 223 kts
2026-04-22 13:14 25.34273 55.29695 5206 ft 230 kts 16°
2026-04-22 13:14 25.35773 55.30581 5936 ft 261 kts 33°
2026-04-22 13:15 25.37338 55.31796 6851 ft 288 kts 34°
2026-04-22 13:15 25.39023 55.33042 8052 ft 298 kts 31°
2026-04-22 13:15 25.40813 55.34236 9530 ft 304 kts 29°
2026-04-22 13:15 25.42659 55.35458 10677 ft 319 kts 30°
2026-04-22 13:16 25.44629 55.36802 11465 ft 346 kts 31°
2026-04-22 13:16 25.46753 55.38268 12237 ft 373 kts 31°
2026-04-22 13:16 25.49030 55.39827 13067 ft 395 kts 30°
2026-04-22 13:16 25.51393 55.41435 14311 ft 404 kts 30°
2026-04-22 13:17 25.53855 55.43114 14917 ft 431 kts 30°
2026-04-22 13:17 25.56350 55.44828 16782 ft 408 kts 30°
2026-04-22 13:17 25.58801 55.46511 17946 ft 423 kts 29°
2026-04-22 13:17 25.61325 55.48230 18935 ft 429 kts 29°
2026-04-22 13:18 25.63890 55.49983 19884 ft 437 kts 29°
2026-04-22 13:18 25.66488 55.51767 20844 ft 444 kts 29°
2026-04-22 13:18 25.69135 55.53584 21772 ft 451 kts 28°
2026-04-22 13:18 25.71825 55.55429 22685 ft 458 kts 28°
2026-04-22 13:19 25.74559 55.57303 23539 ft 466 kts 28°
2026-04-22 13:19 25.77328 55.59206 24330 ft 471 kts 28°
2026-04-22 13:19 25.80140 55.61095 25129 ft 473 kts 23°
2026-04-22 13:19 25.83179 55.62445 25897 ft 470 kts 10°
2026-04-22 13:20 25.86383 55.63033 26666 ft 465 kts 357°
2026-04-22 13:20 25.89593 55.62834 27445 ft 460 kts 344°
2026-04-22 13:20 25.92661 55.61894 28213 ft 457 kts 335°
2026-04-22 13:20 25.95625 55.60591 28987 ft 460 kts 332°
2026-04-22 13:21 25.98592 55.59222 29745 ft 464 kts 333°
2026-04-22 13:21 26.01660 55.58015 30370 ft 472 kts 339°
2026-04-22 13:21 26.04854 55.57054 30938 ft 479 kts 341°
2026-04-22 13:21 26.08092 55.56126 31522 ft 482 kts 339°
2026-04-22 13:22 26.11306 55.55024 32071 ft 485 kts 337°
2026-04-22 13:22 26.14527 55.53850 32605 ft 490 kts 338°
2026-04-22 13:22 26.17801 55.52752 33131 ft 495 kts 340°
2026-04-22 13:22 26.21129 55.51691 33641 ft 500 kts 340°
2026-04-22 13:23 26.24472 55.50579 34110 ft 503 kts 339°
2026-04-22 13:23 26.27820 55.49423 34617 ft 505 kts 338°
2026-04-22 13:23 26.31191 55.48279 35091 ft 507 kts 339°
2026-04-22 13:23 26.34569 55.47162 35610 ft 505 kts 338°
2026-04-22 13:24 26.37925 55.46044 36111 ft 502 kts 338°
2026-04-22 13:24 26.41259 55.44912 36610 ft 499 kts 337°
2026-04-22 13:24 26.44575 55.43787 37104 ft 497 kts 337°
2026-04-22 13:24 26.47879 55.42677 37576 ft 495 kts 337°
2026-04-22 13:25 26.51169 55.41573 38040 ft 492 kts 336°
2026-04-22 13:25 26.54440 55.40468 38484 ft 490 kts 336°
2026-04-22 13:25 26.57700 55.39363 38845 ft 489 kts 336°
2026-04-22 13:25 26.60958 55.38262 39201 ft 489 kts 336°
2026-04-22 13:26 26.64216 55.37163 39566 ft 489 kts 336°
2026-04-22 13:26 26.67470 55.36061 39767 ft 492 kts 336°
2026-04-22 13:26 26.70750 55.34949 39768 ft 493 kts 336°
2026-04-22 13:27 26.77322 55.32725 39777 ft 493 kts 336°
2026-04-22 13:27 26.83897 55.30494 39786 ft 494 kts 336°
2026-04-22 13:28 26.90430 55.28276 39792 ft 494 kts 336°
2026-04-22 13:28 26.97006 55.26039 39806 ft 494 kts 336°
2026-04-22 13:29 27.03584 55.23800 39822 ft 494 kts 336°
2026-04-22 13:29 27.10159 55.21558 39841 ft 495 kts 336°
2026-04-22 13:30 27.15682 55.19674 39845 ft 495 kts 336°
2026-04-22 13:30 27.22275 55.17421 39853 ft 495 kts 336°
2026-04-22 13:31 27.28866 55.15168 39866 ft 495 kts 336°
2026-04-22 13:31 27.35454 55.12911 39876 ft 495 kts 336°
2026-04-22 13:32 27.42053 55.10648 39870 ft 496 kts 336°
2026-04-22 13:32 27.48647 55.08384 39888 ft 496 kts 336°
2026-04-22 13:33 27.55252 55.06114 39899 ft 496 kts 336°
2026-04-22 13:33 27.61858 55.03840 39903 ft 496 kts 336°
2026-04-22 13:34 27.68466 55.01562 39918 ft 497 kts 336°
2026-04-22 13:34 27.75083 54.99279 39931 ft 498 kts 336°
2026-04-22 13:35 27.81666 54.97004 39927 ft 498 kts 336°
2026-04-22 13:35 27.88296 54.94711 39947 ft 498 kts 336°
2026-04-22 13:36 27.94930 54.92413 39962 ft 499 kts 335°
2026-04-22 13:36 28.01565 54.90111 39980 ft 499 kts 335°
2026-04-22 13:37 28.08214 54.87802 39991 ft 500 kts 335°
2026-04-22 13:37 28.14868 54.85488 39995 ft 501 kts 335°
2026-04-22 13:38 28.21523 54.83171 40011 ft 500 kts 335°
2026-04-22 13:38 28.31503 54.79691 40026 ft 500 kts 335°
2026-04-22 13:39 28.38154 54.77367 40035 ft 500 kts 335°
2026-04-22 13:39 28.44804 54.75041 40046 ft 501 kts 335°
2026-04-22 13:40 28.51465 54.72708 40049 ft 501 kts 335°
2026-04-22 13:40 28.58129 54.70371 40064 ft 501 kts 335°
2026-04-22 13:41 28.64801 54.68028 40067 ft 502 kts 335°
2026-04-22 13:41 28.71485 54.65677 40078 ft 503 kts 335°
2026-04-22 13:42 28.78178 54.63320 40075 ft 504 kts 335°
2026-04-22 13:42 28.84879 54.60958 40088 ft 505 kts 335°
2026-04-22 13:43 28.91547 54.58603 40097 ft 505 kts 335°
2026-04-22 13:43 28.98269 54.56227 40099 ft 506 kts 335°
2026-04-22 13:44 29.05002 54.53843 40102 ft 507 kts 335°
2026-04-22 13:44 29.11740 54.51454 40113 ft 507 kts 335°
2026-04-22 13:45 29.18481 54.49061 40117 ft 508 kts 335°
2026-04-22 13:45 29.25235 54.46660 40115 ft 508 kts 335°
2026-04-22 13:46 29.31996 54.44254 40099 ft 509 kts 335°
2026-04-22 13:46 29.38755 54.41844 40090 ft 509 kts 335°
2026-04-22 13:47 29.45516 54.39431 40078 ft 509 kts 335°
2026-04-22 13:47 29.52276 54.37014 40052 ft 509 kts 335°
2026-04-22 13:48 29.59038 54.34593 40049 ft 509 kts 335°
2026-04-22 13:48 29.65797 54.32170 40042 ft 510 kts 335°
2026-04-22 13:49 29.72577 54.29736 40031 ft 511 kts 335°
2026-04-22 13:49 29.79367 54.27295 40016 ft 511 kts 335°
2026-04-22 13:50 29.86161 54.24849 40011 ft 512 kts 335°
2026-04-22 13:50 29.92959 54.22398 40000 ft 512 kts 335°
2026-04-22 13:51 29.99717 54.19959 39996 ft 512 kts 334°
2026-04-22 13:51 30.06528 54.17496 39983 ft 513 kts 334°
2026-04-22 13:52 30.13351 54.15025 39981 ft 516 kts 334°
2026-04-22 13:52 30.20185 54.12548 39982 ft 515 kts 334°
2026-04-22 13:53 30.27030 54.10061 39974 ft 515 kts 334°
2026-04-22 13:53 30.33871 54.07574 39959 ft 515 kts 334°
2026-04-22 13:54 30.40711 54.05083 39950 ft 515 kts 334°
2026-04-22 13:54 30.47555 54.02586 39934 ft 516 kts 334°
2026-04-22 13:55 30.54354 54.00103 39925 ft 515 kts 334°
2026-04-22 13:55 30.61193 53.97601 39915 ft 515 kts 334°
2026-04-22 13:56 30.68025 53.95098 39903 ft 515 kts 334°
2026-04-22 13:56 30.74864 53.92589 39890 ft 515 kts 334°
2026-04-22 13:57 30.81700 53.90077 39880 ft 515 kts 334°
2026-04-22 13:57 30.88535 53.87562 39872 ft 515 kts 334°
2026-04-22 13:58 30.95368 53.85043 39851 ft 515 kts 334°
2026-04-22 13:58 31.02200 53.82522 39847 ft 515 kts 334°
2026-04-22 13:59 31.09028 53.79998 39845 ft 515 kts 334°
2026-04-22 13:59 31.15857 53.77470 39835 ft 515 kts 334°
2026-04-22 14:00 31.22677 53.74941 39831 ft 515 kts 334°
2026-04-22 14:00 31.29504 53.72405 39833 ft 515 kts 334°
2026-04-22 14:01 31.36330 53.69867 39825 ft 515 kts 334°
2026-04-22 14:01 31.43151 53.67327 39833 ft 514 kts 334°
2026-04-22 14:02 31.49964 53.64785 39830 ft 514 kts 334°
2026-04-22 14:02 31.56772 53.62241 39828 ft 513 kts 334°
2026-04-22 14:03 31.63567 53.59699 39826 ft 513 kts 334°
2026-04-22 14:03 31.70365 53.57151 39835 ft 513 kts 334°
2026-04-22 14:04 31.77159 53.54601 39845 ft 512 kts 334°
2026-04-22 14:04 31.83948 53.52049 39851 ft 512 kts 334°
2026-04-22 14:05 31.90737 53.49493 39863 ft 512 kts 334°
2026-04-22 14:06 32.00920 53.45651 39879 ft 512 kts 334°
2026-04-22 14:06 32.07711 53.43085 39870 ft 512 kts 334°
2026-04-22 14:07 32.14495 53.40516 39872 ft 513 kts 334°
2026-04-22 14:07 32.21293 53.37939 39878 ft 513 kts 334°
2026-04-22 14:08 32.28088 53.35358 39877 ft 513 kts 334°
2026-04-22 14:08 32.34838 53.32791 39867 ft 513 kts 334°
2026-04-22 14:09 32.41671 53.30188 39873 ft 513 kts 334°
2026-04-22 14:09 32.48469 53.27594 39875 ft 513 kts 334°
2026-04-22 14:10 32.55267 53.24997 39876 ft 513 kts 334°
2026-04-22 14:10 32.62018 53.22412 39883 ft 513 kts 334°
2026-04-22 14:11 32.68818 53.19805 39887 ft 514 kts 334°
2026-04-22 14:11 32.75618 53.17194 39894 ft 513 kts 334°
2026-04-22 14:12 32.82414 53.14580 39898 ft 513 kts 334°
2026-04-22 14:12 32.89211 53.11962 39912 ft 513 kts 334°
2026-04-22 14:13 32.95999 53.09343 39918 ft 513 kts 334°
2026-04-22 14:13 33.02791 53.06718 39921 ft 513 kts 334°
2026-04-22 14:14 33.09584 53.04088 39928 ft 513 kts 334°
2026-04-22 14:14 33.16389 53.01449 39920 ft 515 kts 334°
2026-04-22 14:15 33.23201 52.98805 39921 ft 515 kts 334°
2026-04-22 14:15 33.30009 52.96156 39917 ft 515 kts 334°
2026-04-22 14:16 33.35660 52.93954 39926 ft 514 kts 334°
2026-04-22 14:16 33.43612 52.90851 39917 ft 514 kts 334°
2026-04-22 14:17 33.49273 52.88638 39910 ft 515 kts 334°
2026-04-22 14:17 33.56083 52.85972 39915 ft 515 kts 334°
2026-04-22 14:18 33.63998 52.82868 39909 ft 515 kts 334°
2026-04-22 14:18 33.69710 52.80624 39907 ft 515 kts 334°
2026-04-22 14:19 33.77633 52.77507 39918 ft 516 kts 334°
2026-04-22 14:19 33.83344 52.75256 39913 ft 516 kts 334°
2026-04-22 14:20 33.93585 52.71211 39917 ft 517 kts 334°
2026-04-22 14:20 34.00378 52.68523 39917 ft 518 kts 334°
2026-04-22 14:21 34.10659 52.64445 39914 ft 519 kts 334°
2026-04-22 14:22 34.20947 52.60355 39906 ft 519 kts 334°
2026-04-22 14:23 34.31240 52.56252 39898 ft 519 kts 334°
2026-04-22 14:23 34.38105 52.53509 39893 ft 520 kts 334°
2026-04-22 14:24 34.44975 52.50760 39883 ft 520 kts 334°
2026-04-22 14:24 34.51846 52.48006 39884 ft 520 kts 334°
2026-04-22 14:25 34.58718 52.45246 39882 ft 520 kts 334°
2026-04-22 14:25 34.65594 52.42479 39876 ft 521 kts 334°
2026-04-22 14:26 34.72466 52.39710 39871 ft 521 kts 334°
2026-04-22 14:26 34.79355 52.36929 39872 ft 521 kts 334°
2026-04-22 14:27 34.86228 52.34150 39870 ft 521 kts 334°
2026-04-22 14:27 34.93114 52.31360 39870 ft 522 kts 334°
2026-04-22 14:28 35.00001 52.28565 39864 ft 521 kts 335°
2026-04-22 14:28 35.06886 52.25766 39871 ft 522 kts 335°
2026-04-22 14:29 35.13774 52.22960 39870 ft 522 kts 335°
2026-04-22 14:29 35.20665 52.20149 39880 ft 522 kts 335°
2026-04-22 14:30 35.27548 52.17336 39890 ft 521 kts 335°
2026-04-22 14:30 35.34390 52.14533 39902 ft 522 kts 335°
2026-04-22 14:31 35.41329 52.11687 39914 ft 522 kts 335°
2026-04-22 14:31 35.48223 52.08854 39926 ft 523 kts 335°
2026-04-22 14:32 35.55112 52.06018 39945 ft 523 kts 335°
2026-04-22 14:32 35.62010 52.03172 39954 ft 523 kts 335°
2026-04-22 14:33 35.68868 52.00339 39965 ft 523 kts 335°
2026-04-22 14:33 35.75769 51.97482 39982 ft 523 kts 335°
2026-04-22 14:34 35.82662 51.94623 39997 ft 523 kts 335°
2026-04-22 14:34 35.89558 51.91758 39998 ft 523 kts 335°
2026-04-22 14:35 35.96450 51.88890 40002 ft 522 kts 335°
2026-04-22 14:35 36.03340 51.86016 40022 ft 523 kts 335°
2026-04-22 14:36 36.10235 51.83136 40026 ft 523 kts 335°
2026-04-22 14:36 36.17125 51.80251 40038 ft 523 kts 335°
2026-04-22 14:37 36.24014 51.77364 40037 ft 523 kts 335°
2026-04-22 14:37 36.30912 51.74465 40032 ft 523 kts 335°
2026-04-22 14:38 36.37811 51.71562 40025 ft 523 kts 335°
2026-04-22 14:38 36.44706 51.68653 40000 ft 523 kts 335°
2026-04-22 14:39 36.51599 51.65741 39975 ft 523 kts 335°
2026-04-22 14:39 36.58492 51.62823 39957 ft 523 kts 335°
2026-04-22 14:40 36.68828 51.58438 39951 ft 523 kts 335°
2026-04-22 14:40 36.75720 51.55507 39954 ft 523 kts 335°
2026-04-22 14:41 36.82614 51.52569 39953 ft 524 kts 335°
2026-04-22 14:41 36.89501 51.49629 39959 ft 524 kts 335°
2026-04-22 14:42 36.96399 51.46678 39967 ft 524 kts 335°
2026-04-22 14:42 37.03287 51.43726 39962 ft 524 kts 335°
2026-04-22 14:43 37.10180 51.40767 39970 ft 524 kts 335°
2026-04-22 14:43 37.17071 51.37802 39975 ft 524 kts 335°
2026-04-22 14:44 37.23960 51.34833 39965 ft 523 kts 335°
2026-04-22 14:44 37.30847 51.31858 39975 ft 523 kts 335°
2026-04-22 14:45 37.37685 51.28900 39968 ft 523 kts 335°
2026-04-22 14:45 37.44566 51.25916 39964 ft 523 kts 335°
2026-04-22 14:46 37.51444 51.22929 39969 ft 523 kts 335°
2026-04-22 14:46 37.58357 51.19919 39972 ft 523 kts 335°
2026-04-22 14:47 37.65185 51.16942 39968 ft 523 kts 335°
2026-04-22 14:47 37.72055 51.13940 39971 ft 522 kts 335°
2026-04-22 14:48 37.78925 51.10932 39970 ft 522 kts 335°
2026-04-22 14:48 37.85794 51.07919 39966 ft 523 kts 335°
2026-04-22 14:49 37.92664 51.04899 39970 ft 522 kts 335°
2026-04-22 14:49 37.99531 51.01874 39964 ft 522 kts 335°
2026-04-22 14:50 38.06298 50.98575 39969 ft 521 kts 334°
2026-04-22 14:50 38.13063 50.95286 39970 ft 521 kts 334°
2026-04-22 14:51 38.19821 50.91951 39964 ft 521 kts 334°
2026-04-22 14:51 38.26586 50.88638 39963 ft 521 kts 334°
2026-04-22 14:52 38.33347 50.85298 39963 ft 521 kts 334°
2026-04-22 14:52 38.40113 50.81963 39955 ft 521 kts 334°
2026-04-22 14:53 38.46875 50.78614 39958 ft 521 kts 334°
2026-04-22 14:53 38.53589 50.75287 39949 ft 521 kts 334°
2026-04-22 14:54 38.60344 50.71931 39953 ft 521 kts 334°
2026-04-22 14:54 38.67097 50.68571 39956 ft 520 kts 334°
2026-04-22 14:55 38.73836 50.65209 39956 ft 520 kts 334°
2026-04-22 14:55 38.80580 50.61840 39952 ft 520 kts 334°
2026-04-22 14:56 38.87321 50.58464 39951 ft 520 kts 334°
2026-04-22 14:56 38.94061 50.55082 39946 ft 520 kts 334°
2026-04-22 14:57 39.00799 50.51694 39944 ft 520 kts 334°
2026-04-22 14:57 39.07535 50.48300 39943 ft 520 kts 334°
2026-04-22 14:58 39.14269 50.44900 39938 ft 520 kts 334°
2026-04-22 14:58 39.20997 50.41496 39932 ft 519 kts 334°
2026-04-22 14:59 39.27716 50.38089 39934 ft 518 kts 334°
2026-04-22 14:59 39.34422 50.34683 39931 ft 518 kts 334°
2026-04-22 15:00 39.41130 50.31268 39928 ft 518 kts 334°
2026-04-22 15:00 39.47834 50.27848 39926 ft 518 kts 334°
2026-04-22 15:01 39.54530 50.24425 39916 ft 517 kts 334°
2026-04-22 15:01 39.61225 50.20995 39913 ft 517 kts 334°
2026-04-22 15:02 39.67921 50.17558 39917 ft 517 kts 334°
2026-04-22 15:02 39.74615 50.14115 39902 ft 517 kts 334°
2026-04-22 15:03 39.81304 50.10667 39906 ft 517 kts 334°
2026-04-22 15:03 39.87988 50.07214 39899 ft 517 kts 334°
2026-04-22 15:04 39.94624 50.03779 39901 ft 516 kts 334°
2026-04-22 15:04 40.01293 50.00320 39898 ft 516 kts 334°
2026-04-22 15:05 40.07962 49.96853 39895 ft 516 kts 334°
2026-04-22 15:05 40.13552 49.93942 39893 ft 516 kts 334°
2026-04-22 15:06 40.20178 49.90484 39889 ft 516 kts 334°
2026-04-22 15:06 40.26852 49.86994 39887 ft 516 kts 334°
2026-04-22 15:07 40.33521 49.83499 39890 ft 516 kts 334°
2026-04-22 15:07 40.40176 49.80004 39889 ft 516 kts 334°
2026-04-22 15:08 40.46838 49.76497 39881 ft 515 kts 334°
2026-04-22 15:08 40.53485 49.72991 39877 ft 515 kts 334°
2026-04-22 15:09 40.60133 49.69478 39870 ft 515 kts 334°
2026-04-22 15:09 40.66774 49.65960 39856 ft 514 kts 334°
2026-04-22 15:10 40.73413 49.62436 39857 ft 514 kts 334°
2026-04-22 15:10 40.80053 49.58903 39854 ft 515 kts 333°
2026-04-22 15:11 40.86692 49.55364 39848 ft 515 kts 333°
2026-04-22 15:11 40.93335 49.51815 39849 ft 515 kts 333°
2026-04-22 15:12 40.99980 49.48256 39852 ft 515 kts 333°
2026-04-22 15:12 41.06625 49.44690 39853 ft 515 kts 333°
2026-04-22 15:13 41.13265 49.41119 39854 ft 515 kts 333°
2026-04-22 15:13 41.19903 49.37541 39856 ft 515 kts 333°
2026-04-22 15:14 41.26538 49.33957 39857 ft 515 kts 333°
2026-04-22 15:14 41.33163 49.30371 39862 ft 515 kts 333°
2026-04-22 15:15 41.39794 49.26773 39865 ft 514 kts 333°
2026-04-22 15:15 41.46424 49.23168 39867 ft 514 kts 333°
2026-04-22 15:16 41.53050 49.19557 39863 ft 514 kts 333°
2026-04-22 15:16 41.59673 49.15940 39874 ft 514 kts 333°
2026-04-22 15:17 41.66294 49.12316 39877 ft 514 kts 333°
2026-04-22 15:17 41.72910 49.08686 39872 ft 514 kts 333°
2026-04-22 15:18 41.79520 49.05052 39881 ft 513 kts 333°
2026-04-22 15:18 41.86121 49.01414 39882 ft 514 kts 333°
2026-04-22 15:19 41.92733 48.97763 39883 ft 514 kts 333°
2026-04-22 15:19 41.99348 48.94101 39877 ft 514 kts 333°
2026-04-22 15:20 42.05887 48.90239 39875 ft 513 kts 330°
2026-04-22 15:20 42.12352 48.86180 39880 ft 513 kts 330°
2026-04-22 15:21 42.18808 48.82098 39882 ft 513 kts 330°
2026-04-22 15:21 42.25228 48.78037 39875 ft 513 kts 330°
2026-04-22 15:22 42.31689 48.73940 39872 ft 513 kts 330°
2026-04-22 15:22 42.38148 48.69833 39870 ft 513 kts 330°
2026-04-22 15:23 42.44607 48.65719 39871 ft 513 kts 330°
2026-04-22 15:23 42.51062 48.61596 39878 ft 513 kts 330°
2026-04-22 15:24 42.57508 48.57471 39874 ft 513 kts 330°
2026-04-22 15:24 42.63960 48.53331 39864 ft 513 kts 330°
2026-04-22 15:25 42.70413 48.49183 39870 ft 513 kts 330°
2026-04-22 15:25 42.76862 48.45026 39868 ft 513 kts 330°
2026-04-22 15:26 42.83313 48.40859 39873 ft 513 kts 330°
2026-04-22 15:26 42.89761 48.36684 39871 ft 513 kts 330°
2026-04-22 15:27 42.96203 48.32503 39874 ft 513 kts 330°
2026-04-22 15:27 43.02642 48.28315 39881 ft 512 kts 330°
2026-04-22 15:28 43.09066 48.24126 39882 ft 512 kts 330°
2026-04-22 15:28 43.15487 48.19930 39885 ft 511 kts 330°
2026-04-22 15:29 43.21896 48.15731 39883 ft 510 kts 330°
2026-04-22 15:30 43.31501 48.09421 39886 ft 510 kts 329°
2026-04-22 15:30 43.37910 48.05198 39894 ft 511 kts 329°
2026-04-22 15:31 43.44325 48.00960 39903 ft 512 kts 329°
2026-04-22 15:31 43.50735 47.96717 39904 ft 512 kts 329°
2026-04-22 15:32 43.57154 47.92458 39911 ft 512 kts 329°
2026-04-22 15:32 43.63566 47.88192 39917 ft 511 kts 329°
2026-04-22 15:33 43.69975 47.83919 39921 ft 511 kts 329°
2026-04-22 15:33 43.76376 47.79641 39920 ft 511 kts 329°
2026-04-22 15:34 43.82776 47.75353 39922 ft 511 kts 329°
2026-04-22 15:34 43.89173 47.71056 39921 ft 511 kts 329°
2026-04-22 15:35 43.94482 47.67483 39926 ft 511 kts 329°
2026-04-22 15:35 44.01907 47.62474 39928 ft 510 kts 329°
2026-04-22 15:36 44.08294 47.58153 39928 ft 510 kts 329°
2026-04-22 15:36 44.14674 47.53827 39932 ft 510 kts 329°
2026-04-22 15:37 44.21043 47.49499 39929 ft 509 kts 329°
2026-04-22 15:37 44.27400 47.45167 39917 ft 508 kts 329°
2026-04-22 15:38 44.33750 47.40830 39924 ft 508 kts 329°
2026-04-22 15:38 44.43270 47.34308 39926 ft 509 kts 329°
2026-04-22 15:39 44.49624 47.29942 39929 ft 509 kts 329°
2026-04-22 15:39 44.55982 47.25562 39936 ft 509 kts 329°
2026-04-22 15:40 44.62347 47.21167 39928 ft 510 kts 329°
2026-04-22 15:40 44.68717 47.16757 39930 ft 511 kts 328°
2026-04-22 15:41 44.75094 47.12332 39934 ft 511 kts 328°
2026-04-22 15:41 44.81476 47.07893 39935 ft 512 kts 328°
2026-04-22 15:42 44.87862 47.03439 39934 ft 512 kts 328°
2026-04-22 15:42 44.94247 46.98975 39929 ft 513 kts 328°
2026-04-22 15:43 45.00602 46.94521 39932 ft 514 kts 328°
2026-04-22 15:43 45.07005 46.90022 39935 ft 514 kts 328°
2026-04-22 15:44 45.13415 46.85506 39929 ft 515 kts 328°
2026-04-22 15:44 45.19832 46.80975 39931 ft 516 kts 328°
2026-04-22 15:45 45.26257 46.76426 39923 ft 516 kts 328°
2026-04-22 15:45 45.32690 46.71860 39929 ft 517 kts 328°
2026-04-22 15:46 45.39126 46.67280 39931 ft 518 kts 328°
2026-04-22 15:46 45.45575 46.62679 39923 ft 519 kts 328°
2026-04-22 15:47 45.52030 46.58063 39923 ft 519 kts 328°
2026-04-22 15:47 45.58491 46.53429 39929 ft 520 kts 328°
2026-04-22 15:48 45.64956 46.48781 39932 ft 520 kts 328°
2026-04-22 15:48 45.71421 46.44120 39929 ft 520 kts 328°
2026-04-22 15:49 45.77888 46.39447 39937 ft 521 kts 328°
2026-04-22 15:49 45.84349 46.34765 39926 ft 521 kts 328°
2026-04-22 15:50 45.90815 46.30068 39937 ft 521 kts 328°
2026-04-22 15:50 45.97278 46.25359 39934 ft 521 kts 328°
2026-04-22 15:51 46.03739 46.20641 39937 ft 521 kts 328°
2026-04-22 15:51 46.09111 46.16708 39938 ft 521 kts 328°
2026-04-22 15:52 46.16620 46.11195 39934 ft 521 kts 328°
2026-04-22 15:52 46.22031 46.07212 39933 ft 522 kts 328°
2026-04-22 15:53 46.28455 46.02473 39929 ft 522 kts 328°
2026-04-22 15:53 46.34924 45.97687 39923 ft 522 kts 328°
2026-04-22 15:54 46.41394 45.92888 39915 ft 522 kts 328°
2026-04-22 15:54 46.47864 45.88076 39917 ft 523 kts 328°
2026-04-22 15:55 46.54337 45.83249 39919 ft 523 kts 328°
2026-04-22 15:55 46.60801 45.78415 39916 ft 523 kts 328°
2026-04-22 15:56 46.67275 45.73561 39915 ft 523 kts 328°
2026-04-22 15:56 46.73743 45.68698 39895 ft 523 kts 328°
2026-04-22 15:57 46.80204 45.63827 39896 ft 522 kts 328°
2026-04-22 15:57 46.86648 45.58956 39898 ft 522 kts 328°
2026-04-22 15:58 46.93090 45.54073 39897 ft 521 kts 329°
2026-04-22 15:58 46.99524 45.49183 39894 ft 521 kts 329°
2026-04-22 15:59 47.05948 45.44287 39892 ft 520 kts 328°
2026-04-22 15:59 47.12364 45.39384 39887 ft 520 kts 328°
2026-04-22 16:00 47.18772 45.34473 39885 ft 519 kts 328°
2026-04-22 16:00 47.25174 45.29554 39880 ft 519 kts 328°
2026-04-22 16:01 47.31530 45.24657 39878 ft 519 kts 328°
2026-04-22 16:01 47.37959 45.19688 39874 ft 519 kts 328°
2026-04-22 16:02 47.44307 45.14771 39869 ft 519 kts 328°
2026-04-22 16:02 47.50696 45.09806 39866 ft 519 kts 328°
2026-04-22 16:03 47.57089 45.04826 39860 ft 519 kts 328°
2026-04-22 16:03 47.63482 44.99831 39860 ft 519 kts 328°
2026-04-22 16:04 47.69878 44.94820 39861 ft 520 kts 328°
2026-04-22 16:04 47.76278 44.89792 39857 ft 521 kts 328°
2026-04-22 16:05 47.82683 44.84746 39855 ft 521 kts 328°
2026-04-22 16:05 47.89086 44.79688 39850 ft 522 kts 328°
2026-04-22 16:06 47.95500 44.74606 39847 ft 522 kts 328°
2026-04-22 16:06 48.01916 44.69508 39844 ft 522 kts 328°
2026-04-22 16:07 48.08337 44.64392 39840 ft 523 kts 328°
2026-04-22 16:07 48.14758 44.59262 39834 ft 523 kts 328°
2026-04-22 16:08 48.21180 44.54115 39829 ft 523 kts 328°
2026-04-22 16:08 48.27598 44.48957 39827 ft 523 kts 328°
2026-04-22 16:09 48.34013 44.43787 39825 ft 523 kts 328°
2026-04-22 16:09 48.40382 44.38639 39823 ft 523 kts 328°
2026-04-22 16:10 48.46788 44.33446 39819 ft 523 kts 328°
2026-04-22 16:10 48.53184 44.28247 39810 ft 523 kts 328°
2026-04-22 16:11 48.59585 44.23028 39811 ft 523 kts 328°
2026-04-22 16:11 48.65984 44.17795 39811 ft 523 kts 328°
2026-04-22 16:12 48.72382 44.12549 39811 ft 523 kts 328°
2026-04-22 16:12 48.78779 44.07287 39807 ft 523 kts 328°
2026-04-22 16:13 48.85175 44.02012 39809 ft 523 kts 328°
2026-04-22 16:13 48.91568 43.96723 39805 ft 523 kts 328°
2026-04-22 16:14 48.97949 43.91428 39804 ft 523 kts 328°
2026-04-22 16:14 49.04333 43.86116 39804 ft 523 kts 328°
2026-04-22 16:15 49.10715 43.80789 39808 ft 523 kts 328°
2026-04-22 16:15 49.17094 43.75449 39804 ft 523 kts 328°
2026-04-22 16:16 49.23472 43.70095 39805 ft 523 kts 328°
2026-04-22 16:16 49.29850 43.64724 39807 ft 523 kts 328°
2026-04-22 16:17 49.36229 43.59336 39806 ft 524 kts 328°
2026-04-22 16:17 49.42601 43.53938 39802 ft 524 kts 328°
2026-04-22 16:18 49.48939 43.48553 39807 ft 524 kts 328°
2026-04-22 16:18 49.55320 43.43115 39805 ft 524 kts 328°
2026-04-22 16:19 49.61703 43.37660 39808 ft 525 kts 328°
2026-04-22 16:19 49.68084 43.32188 39807 ft 525 kts 328°
2026-04-22 16:20 49.74465 43.26701 39808 ft 525 kts 328°
2026-04-22 16:20 49.80844 43.21199 39804 ft 525 kts 328°
2026-04-22 16:21 49.87223 43.15680 39805 ft 525 kts 328°
2026-04-22 16:21 49.93593 43.10151 39809 ft 525 kts 328°
2026-04-22 16:22 50.03159 43.01817 39809 ft 526 kts 328°
2026-04-22 16:23 50.12725 42.93446 39812 ft 526 kts 328°
2026-04-22 16:23 50.19100 42.87845 39808 ft 526 kts 328°
2026-04-22 16:24 50.28660 42.79413 39807 ft 526 kts 328°
2026-04-22 16:25 50.35032 42.73770 39807 ft 526 kts 328°
2026-04-22 16:25 50.44580 42.65283 39814 ft 526 kts 328°
2026-04-22 16:26 50.50905 42.59639 39811 ft 526 kts 328°
2026-04-22 16:26 50.57179 42.53730 39810 ft 526 kts 326°
2026-04-22 16:27 50.63427 42.47735 39813 ft 526 kts 326°
2026-04-22 16:27 50.69641 42.41653 39818 ft 526 kts 326°
2026-04-22 16:28 50.75868 42.35595 39817 ft 526 kts 326°
2026-04-22 16:28 50.82076 42.29506 39816 ft 526 kts 326°
2026-04-22 16:29 50.88293 42.23403 39821 ft 526 kts 326°
2026-04-22 16:29 50.94505 42.17281 39816 ft 526 kts 326°
2026-04-22 16:30 51.00715 42.11142 39819 ft 526 kts 326°
2026-04-22 16:30 51.06923 42.04986 39825 ft 526 kts 326°
2026-04-22 16:31 51.13127 41.98813 39820 ft 526 kts 326°
2026-04-22 16:31 51.19327 41.92626 39815 ft 526 kts 326°
2026-04-22 16:32 51.25516 41.86428 39816 ft 526 kts 326°
2026-04-22 16:32 51.31710 41.80206 39810 ft 526 kts 326°
2026-04-22 16:33 51.37903 41.73965 39806 ft 526 kts 326°
2026-04-22 16:33 51.44095 41.67705 39793 ft 526 kts 326°
2026-04-22 16:34 51.50285 41.61426 39795 ft 526 kts 326°
2026-04-22 16:34 51.56433 41.55170 39792 ft 527 kts 326°
2026-04-22 16:35 51.62622 41.48851 39798 ft 527 kts 326°
2026-04-22 16:35 51.68802 41.42520 39790 ft 527 kts 326°
2026-04-22 16:36 51.74988 41.36163 39787 ft 527 kts 326°
2026-04-22 16:36 51.81174 41.29784 39786 ft 527 kts 326°
2026-04-22 16:37 51.87357 41.23389 39779 ft 527 kts 326°
2026-04-22 16:37 51.93530 41.16981 39779 ft 528 kts 326°
2026-04-22 16:38 51.99708 41.10548 39778 ft 528 kts 326°
2026-04-22 16:38 52.05881 41.04098 39774 ft 528 kts 326°
2026-04-22 16:39 52.12051 40.97630 39777 ft 528 kts 326°
2026-04-22 16:39 52.18218 40.91143 39770 ft 528 kts 326°
2026-04-22 16:40 52.24382 40.84637 39764 ft 528 kts 326°
2026-04-22 16:41 52.32615 40.75914 39759 ft 527 kts 326°
2026-04-22 16:41 52.38768 40.69370 39763 ft 527 kts 326°
2026-04-22 16:42 52.45909 40.61745 39751 ft 527 kts 326°
2026-04-22 16:42 52.51015 40.56276 39752 ft 527 kts 326°
2026-04-22 16:43 52.57153 40.49681 39748 ft 527 kts 326°
2026-04-22 16:43 52.63284 40.43070 39750 ft 527 kts 326°
2026-04-22 16:44 52.69404 40.36448 39748 ft 527 kts 326°
2026-04-22 16:44 52.75526 40.29803 39748 ft 527 kts 326°
2026-04-22 16:45 52.81643 40.23140 39741 ft 527 kts 326°
2026-04-22 16:45 52.87755 40.16460 39744 ft 526 kts 326°
2026-04-22 16:46 52.93862 40.09763 39737 ft 526 kts 326°
2026-04-22 16:46 52.99960 40.03051 39735 ft 526 kts 326°
2026-04-22 16:47 53.06057 39.96318 39737 ft 526 kts 326°
2026-04-22 16:47 53.12152 39.89562 39734 ft 526 kts 326°
2026-04-22 16:48 53.18246 39.82787 39727 ft 527 kts 326°
2026-04-22 16:48 53.24337 39.75990 39728 ft 527 kts 326°
2026-04-22 16:49 53.30423 39.69174 39728 ft 527 kts 326°
2026-04-22 16:49 53.36506 39.62339 39725 ft 527 kts 326°
2026-04-22 16:50 53.42542 39.55533 39720 ft 527 kts 326°
2026-04-22 16:50 53.48617 39.48658 39720 ft 527 kts 326°
2026-04-22 16:51 53.54687 39.41767 39719 ft 526 kts 325°
2026-04-22 16:51 53.60741 39.34867 39714 ft 526 kts 325°
2026-04-22 16:52 53.66798 39.27940 39714 ft 526 kts 325°
2026-04-22 16:52 53.72856 39.20988 39715 ft 526 kts 325°
2026-04-22 16:53 53.78912 39.14014 39714 ft 527 kts 325°
2026-04-22 16:53 53.84966 39.07016 39706 ft 527 kts 325°
2026-04-22 16:54 53.91016 38.99999 39706 ft 527 kts 325°
2026-04-22 16:54 53.97065 38.92957 39696 ft 527 kts 325°
2026-04-22 16:55 54.03114 38.85891 39695 ft 528 kts 325°
2026-04-22 16:55 54.09154 38.78808 39692 ft 528 kts 325°
2026-04-22 16:56 54.15196 38.71699 39686 ft 527 kts 325°
2026-04-22 16:56 54.21231 38.64571 39687 ft 527 kts 325°
2026-04-22 16:57 54.27261 38.57424 39676 ft 527 kts 325°
2026-04-22 16:57 54.33282 38.50262 39678 ft 527 kts 325°
2026-04-22 16:58 54.38289 38.44286 39670 ft 527 kts 325°
2026-04-22 16:58 54.45318 38.35865 39665 ft 527 kts 325°
2026-04-22 16:59 54.51323 38.28644 39659 ft 527 kts 325°
2026-04-22 16:59 54.57291 38.21441 39658 ft 527 kts 325°
2026-04-22 17:00 54.63293 38.14169 39651 ft 527 kts 325°
2026-04-22 17:00 54.72286 38.03224 39643 ft 527 kts 325°
2026-04-22 17:01 54.78280 37.95897 39639 ft 527 kts 325°
2026-04-22 17:01 54.84271 37.88544 39636 ft 528 kts 325°
2026-04-22 17:02 54.90257 37.81171 39632 ft 528 kts 325°
2026-04-22 17:02 54.96241 37.73771 39625 ft 528 kts 324°
2026-04-22 17:03 55.02223 37.66348 39623 ft 528 kts 324°
2026-04-22 17:03 55.08200 37.58904 39614 ft 527 kts 324°
2026-04-22 17:04 55.14161 37.51449 39613 ft 528 kts 324°
2026-04-22 17:04 55.20125 37.43965 39616 ft 527 kts 324°
2026-04-22 17:05 55.26082 37.36461 39619 ft 527 kts 324°
2026-04-22 17:05 55.32034 37.28934 39613 ft 527 kts 324°
2026-04-22 17:06 55.37978 37.21390 39612 ft 527 kts 324°
2026-04-22 17:06 55.43915 37.13826 39608 ft 527 kts 324°
2026-04-22 17:07 55.49842 37.06244 39612 ft 526 kts 324°
2026-04-22 17:07 55.55760 36.98648 39587 ft 526 kts 324°
2026-04-22 17:08 55.61672 36.91029 39589 ft 526 kts 324°
2026-04-22 17:08 55.67538 36.83440 39593 ft 525 kts 324°
2026-04-22 17:09 55.73435 36.75783 39594 ft 525 kts 324°
2026-04-22 17:09 55.79362 36.68055 39587 ft 525 kts 324°
2026-04-22 17:10 55.85236 36.60369 39579 ft 524 kts 324°
2026-04-22 17:10 55.91108 36.52656 39568 ft 524 kts 324°
2026-04-22 17:11 55.96970 36.44925 39567 ft 524 kts 324°
2026-04-22 17:11 56.02784 36.37229 39563 ft 523 kts 324°
2026-04-22 17:12 56.08628 36.29463 39556 ft 523 kts 324°
2026-04-22 17:12 56.14467 36.21674 39552 ft 523 kts 324°
2026-04-22 17:13 56.20288 36.13878 39543 ft 522 kts 324°
2026-04-22 17:13 56.26109 36.06053 39540 ft 522 kts 324°
2026-04-22 17:14 56.31919 35.98211 39535 ft 522 kts 324°
2026-04-22 17:14 56.37721 35.90350 39544 ft 521 kts 324°
2026-04-22 17:15 56.43512 35.82473 39533 ft 521 kts 324°
2026-04-22 17:15 56.49293 35.74578 39535 ft 520 kts 324°
2026-04-22 17:16 56.55063 35.66668 39524 ft 520 kts 324°
2026-04-22 17:16 56.60819 35.58746 39522 ft 519 kts 323°
2026-04-22 17:17 56.66568 35.50802 39519 ft 519 kts 323°
2026-04-22 17:17 56.72306 35.42844 39513 ft 518 kts 323°
2026-04-22 17:18 56.77997 35.34918 39503 ft 518 kts 323°
2026-04-22 17:18 56.83717 35.26921 39500 ft 517 kts 323°
2026-04-22 17:19 56.95131 35.10868 39491 ft 517 kts 323°
2026-04-22 17:20 57.06513 34.94734 39487 ft 517 kts 323°
2026-04-22 17:21 57.15036 34.82567 39479 ft 517 kts 323°
2026-04-22 17:22 57.23547 34.70345 39474 ft 516 kts 323°
2026-04-22 17:23 57.32032 34.58087 39472 ft 516 kts 323°
2026-04-22 17:23 57.40506 34.45770 39467 ft 516 kts 323°
2026-04-22 17:24 57.46145 34.37533 39463 ft 516 kts 323°
2026-04-22 17:24 57.51740 34.29326 39461 ft 515 kts 323°
2026-04-22 17:25 57.57363 34.21045 39461 ft 515 kts 323°
2026-04-22 17:25 57.62975 34.12748 39461 ft 515 kts 323°
2026-04-22 17:26 57.68625 34.04360 39465 ft 515 kts 323°
2026-04-22 17:26 57.74179 33.96080 39469 ft 514 kts 323°
2026-04-22 17:27 57.79765 33.87719 39471 ft 514 kts 323°
2026-04-22 17:27 57.85343 33.79336 39476 ft 513 kts 323°
2026-04-22 17:28 57.90904 33.70937 39479 ft 513 kts 323°
2026-04-22 17:28 57.96456 33.62498 39481 ft 513 kts 323°
2026-04-22 17:29 58.02002 33.54047 39487 ft 512 kts 323°
2026-04-22 17:29 58.07539 33.45567 39486 ft 512 kts 322°
2026-04-22 17:30 58.12129 33.38513 39485 ft 512 kts 322°
2026-04-22 17:30 58.17651 33.29994 39489 ft 512 kts 322°
2026-04-22 17:31 58.23136 33.21502 39174 ft 503 kts 323°
2026-04-22 17:31 58.25847 33.17296 38494 ft 504 kts 323°
2026-04-22 17:31 58.28559 33.13080 37787 ft 503 kts 323°
2026-04-22 17:32 58.31255 33.08875 37122 ft 500 kts 323°
2026-04-22 17:32 58.33933 33.04691 36470 ft 496 kts 323°
2026-04-22 17:32 58.36591 33.00531 35810 ft 493 kts 323°
2026-04-22 17:32 58.39231 32.96393 35171 ft 490 kts 323°
2026-04-22 17:33 58.41851 32.92276 34521 ft 486 kts 323°
2026-04-22 17:33 58.44449 32.88185 33875 ft 483 kts 323°
2026-04-22 17:33 58.47017 32.84140 33165 ft 476 kts 322°
2026-04-22 17:33 58.49547 32.80137 32543 ft 468 kts 321°
2026-04-22 17:34 58.52031 32.76200 31910 ft 461 kts 321°
2026-04-22 17:34 58.54487 32.72305 31274 ft 454 kts 321°
2026-04-22 17:34 58.56897 32.68476 30652 ft 447 kts 321°
2026-04-22 17:34 58.59267 32.64703 30045 ft 439 kts 321°
2026-04-22 17:35 58.61596 32.60985 29416 ft 432 kts 321°
2026-04-22 17:35 58.63882 32.57333 28813 ft 423 kts 321°
2026-04-22 17:35 58.66114 32.53762 28264 ft 412 kts 321°
2026-04-22 17:35 58.68289 32.50272 27678 ft 403 kts 321°
2026-04-22 17:36 58.70412 32.46863 27120 ft 394 kts 321°
2026-04-22 17:36 58.72492 32.43516 26561 ft 386 kts 320°
2026-04-22 17:36 58.74529 32.40234 26018 ft 378 kts 320°
2026-04-22 17:36 58.76498 32.37056 25481 ft 371 kts 320°
2026-04-22 17:37 58.78456 32.33892 24947 ft 364 kts 320°
2026-04-22 17:37 58.80376 32.30781 24424 ft 357 kts 320°
2026-04-22 17:37 58.82264 32.27720 23887 ft 351 kts 320°
2026-04-22 17:37 58.84120 32.24706 23387 ft 346 kts 319°
2026-04-22 17:38 58.85946 32.21736 22833 ft 341 kts 319°
2026-04-22 17:38 58.87739 32.18813 22333 ft 333 kts 319°
2026-04-22 17:38 58.89491 32.15955 21822 ft 326 kts 319°
2026-04-22 17:38 58.91205 32.13157 21335 ft 319 kts 319°
2026-04-22 17:39 58.92884 32.10412 20845 ft 313 kts 319°
2026-04-22 17:39 58.94542 32.07697 20376 ft 311 kts 319°
2026-04-22 17:39 58.97832 32.02298 19397 ft 307 kts 319°
2026-04-22 17:40 58.99446 31.99646 18918 ft 301 kts 319°
2026-04-22 17:40 59.01028 31.97042 18431 ft 296 kts 319°
2026-04-22 17:40 59.02596 31.94458 17975 ft 295 kts 319°
2026-04-22 17:40 59.04159 31.91877 17468 ft 294 kts 319°
2026-04-22 17:41 59.05705 31.89324 17311 ft 289 kts 319°
2026-04-22 17:41 59.07261 31.86749 16981 ft 297 kts 319°
2026-04-22 17:41 59.08813 31.84178 16496 ft 291 kts 319°
2026-04-22 17:41 59.10350 31.81630 16028 ft 291 kts 319°
2026-04-22 17:42 59.11819 31.78883 15614 ft 295 kts 316°
2026-04-22 17:42 59.13300 31.76095 15225 ft 297 kts 316°
2026-04-22 17:42 59.14794 31.73300 14836 ft 298 kts 316°
2026-04-22 17:42 59.16283 31.70480 14425 ft 299 kts 316°
2026-04-22 17:43 59.17772 31.67645 14035 ft 299 kts 316°
2026-04-22 17:43 59.19264 31.64810 13647 ft 300 kts 316°
2026-04-22 17:43 59.20739 31.62009 13258 ft 300 kts 316°
2026-04-22 17:43 59.22229 31.59172 12851 ft 298 kts 316°
2026-04-22 17:44 59.23704 31.56360 12456 ft 295 kts 316°
2026-04-22 17:44 59.25162 31.53575 12066 ft 292 kts 316°
2026-04-22 17:44 59.26603 31.50819 11668 ft 285 kts 316°
2026-04-22 17:44 59.27985 31.48173 11319 ft 273 kts 316°
2026-04-22 17:45 59.29317 31.45616 10949 ft 264 kts 316°
2026-04-22 17:45 59.30609 31.43136 10610 ft 258 kts 316°
2026-04-22 17:45 59.31885 31.40684 10266 ft 256 kts 316°
2026-04-22 17:45 59.33137 31.38274 9928 ft 249 kts 316°
2026-04-22 17:46 59.34359 31.35920 9609 ft 244 kts 316°
2026-04-22 17:46 59.35563 31.33600 9274 ft 241 kts 316°
2026-04-22 17:46 59.36752 31.31301 8936 ft 239 kts 316°
2026-04-22 17:46 59.37934 31.29018 8643 ft 238 kts 317°
2026-04-22 17:47 59.39108 31.26746 8335 ft 236 kts 317°
2026-04-22 17:47 59.40275 31.24486 8030 ft 235 kts 317°
2026-04-22 17:47 59.41436 31.22236 7708 ft 234 kts 317°
2026-04-22 17:47 59.42589 31.19999 7399 ft 232 kts 317°
2026-04-22 17:48 59.43347 31.18526 7213 ft 232 kts 317°
2026-04-22 17:48 59.44877 31.15553 6790 ft 230 kts 317°
2026-04-22 17:48 59.46011 31.13344 6498 ft 229 kts 317°
2026-04-22 17:48 59.47138 31.11149 6182 ft 228 kts 317°
2026-04-22 17:49 59.48260 31.08960 5885 ft 226 kts 318°
2026-04-22 17:49 59.49364 31.06805 5584 ft 219 kts 318°
2026-04-22 17:49 59.50429 31.04724 5270 ft 212 kts 318°
2026-04-22 17:49 59.51453 31.02718 5034 ft 200 kts 318°
2026-04-22 17:50 59.52378 31.00901 4971 ft 180 kts 319°
2026-04-22 17:50 59.53270 30.99161 4933 ft 179 kts 319°
2026-04-22 17:50 59.54157 30.97425 4911 ft 183 kts 319°
2026-04-22 17:50 59.55100 30.95582 4907 ft 195 kts 318°
2026-04-22 17:51 59.56070 30.93673 4912 ft 199 kts 318°
2026-04-22 17:51 59.57054 30.91735 4918 ft 201 kts 318°
2026-04-22 17:51 59.58050 30.89774 4808 ft 203 kts 318°
2026-04-22 17:51 59.59042 30.87820 4691 ft 201 kts 318°
2026-04-22 17:52 59.59997 30.85932 4544 ft 184 kts 318°
2026-04-22 17:52 59.60882 30.84185 4431 ft 179 kts 318°
2026-04-22 17:52 59.61761 30.82454 4293 ft 177 kts 318°
2026-04-22 17:52 59.62632 30.80735 4166 ft 177 kts 318°
2026-04-22 17:53 59.63503 30.79014 4059 ft 176 kts 318°
2026-04-22 17:53 59.64337 30.77359 3947 ft 169 kts 318°
2026-04-22 17:53 59.65191 30.75673 3820 ft 174 kts 318°
2026-04-22 17:53 59.66051 30.73969 3705 ft 176 kts 318°
2026-04-22 17:54 59.66916 30.72251 3599 ft 176 kts 318°
2026-04-22 17:54 59.67783 30.70530 3464 ft 177 kts 318°
2026-04-22 17:54 59.68645 30.68817 3346 ft 176 kts 318°
2026-04-22 17:54 59.69510 30.67099 3233 ft 176 kts 318°
2026-04-22 17:55 59.70071 30.65980 3165 ft 167 kts 318°
2026-04-22 17:55 59.71077 30.63968 2994 ft 142 kts 319°
2026-04-22 17:55 59.71757 30.62618 2892 ft 136 kts 319°
2026-04-22 17:55 59.72424 30.61292 2799 ft 136 kts 320°
2026-04-22 17:56 59.73086 30.59971 2703 ft 135 kts 319°
2026-04-22 17:56 59.73748 30.58650 2627 ft 133 kts 319°
2026-04-22 17:56 59.74377 30.57392 2542 ft 125 kts 319°
2026-04-22 17:56 59.74882 30.56006 2486 ft 126 kts 298°
2026-04-22 17:57 59.75121 30.54382 2528 ft 120 kts 301°
2026-04-22 17:57 59.75361 30.52791 2528 ft 120 kts 297°
2026-04-22 17:57 59.75606 30.51210 2529 ft 120 kts 294°
2026-04-22 17:57 59.75855 30.49599 2389 ft 122 kts 297°
2026-04-22 17:58 59.76095 30.47975 2234 ft 123 kts 296°
2026-04-22 17:58 59.76339 30.46352 2072 ft 123 kts 296°
2026-04-22 17:58 59.76580 30.44732 1903 ft 122 kts 295°
2026-04-22 17:58 59.76821 30.43115 1739 ft 122 kts 294°
2026-04-22 17:59 59.77063 30.41502 1555 ft 122 kts 294°
2026-04-22 17:59 59.77302 30.39891 1384 ft 122 kts 294°
2026-04-22 17:59 59.77551 30.38246 1195 ft 127 kts 291°
2026-04-22 17:59 59.77800 30.36544 1010 ft 130 kts 290°
2026-04-22 18:00 59.77973 30.35397 859 ft 132 kts 289°
2026-04-22 18:00 59.78321 30.33035 637 ft 131 kts 287°
2026-04-22 18:00 59.78587 30.31281 450 ft 134 kts 289°
2026-04-22 18:00 59.78843 30.29494 267 ft 134 kts 287°
2026-04-22 18:01 59.79115 30.27734 114 ft 132 kts 287°
2026-04-22 18:01 59.79347 30.26150 93 ft 96 kts 285°
2026-04-22 18:01 59.79495 30.25161 92 ft 61 kts 286°
2026-04-22 18:01 59.79601 30.24444 95 ft 49 kts 287°
2026-04-22 18:02 59.79670 30.23985 94 ft 26 kts 287°
2026-04-22 18:02 59.79719 30.23662 93 ft 24 kts 287°
2026-04-22 18:02 59.79776 30.23372 91 ft 21 kts 296°
2026-04-22 18:02 59.79857 30.23150 94 ft 18 kts 316°
2026-04-22 18:03 59.79942 30.23037 92 ft 8 kts 352°
2026-04-22 18:03 59.79958 30.23043 91 ft 1 kts 21°
2026-04-22 18:03 59.79964 30.23055 91 ft 1 kts 42°
2026-04-22 18:03 59.79970 30.23094 88 ft 5 kts 75°
2026-04-22 18:04 59.79964 30.23184 90 ft 14 kts 104°
2026-04-22 18:04 59.79918 30.23517 90 ft 35 kts 105°
2026-04-22 18:04 59.79850 30.23990 89 ft 35 kts 107°
2026-04-22 18:04 59.79781 30.24454 92 ft 35 kts 106°
2026-04-22 18:05 59.79712 30.24909 94 ft 34 kts 107°
2026-04-22 18:05 59.79646 30.25358 94 ft 34 kts 105°
2026-04-22 18:05 59.79581 30.25802 96 ft 33 kts 106°
2026-04-22 18:05 59.79524 30.26200 94 ft 21 kts 99°
2026-04-22 18:06 59.79554 30.26321 93 ft 3 kts 24°
2026-04-22 18:06 59.79619 30.26360 93 ft 18 kts 16°
2026-04-22 18:06 59.79759 30.26448 94 ft 22 kts 17°
2026-04-22 18:06 59.79877 30.26563 94 ft 13 kts 57°
2026-04-22 18:07 59.79882 30.26620 95 ft 2 kts 102°
2026-04-22 18:07 59.79869 30.26699 94 ft 0 kts 108°